Regional Weather Roundup
Issued by NWS

Home | Current Version | Previous Version | Graphics & Text | Print | Product List | Glossary On
Versions: 1 2 3 4 5 6 7 8 9 10 11 12 13 14 15 16 17 18 19 20 21 22 23 24 25 26 27 28 29 30 31 32 33 34 35 36 37 38 39 40 41 42 43 44 45 46 47 48 49 50
000
ASUS43 KLMK 301002
RWRKY
KENTUCKY REGIONAL WEATHER ROUNDUP
NATIONAL WEATHER SERVICE LOUISVILLE KY
600 AM EDT WED JUL 30 2014

NOTE "FAIR" INDICATES FEW OR NO CLOUDS BELOW 12,000 FEET
WITH NO SIGNIFICANT WEATHER AND/OR OBSTRUCTIONS TO VISIBILITY.

KYZ001>023-026-027-061>063-070>075-301100-
WESTERN AND SOUTH CENTRAL KENTUCKY

CITY           SKY/WX    TMP DP  RH WIND       PRES   REMARKS
PADUCAH        CLEAR     58  55  90 CALM      30.09R
HENDERSON      CLEAR     55  52  88 SW3       30.08R
OWENSBORO      CLEAR     57  55  93 CALM      30.09R
HOPKINSVILLE   CLEAR     58  55  91 SW3       30.10R
BOWLING GREEN  CLEAR     57  52  83 CALM      30.10R
GLASGOW        PTCLDY    55  55 100 CALM      30.10S FOG
$$

KYZ024-025-028>034-038-045-046-053-301100-
NORTH CENTRAL KENTUCKY

CITY           SKY/WX    TMP DP  RH WIND       PRES   REMARKS
LOUISVILLE/SDF CLEAR     63  58  83 SW3       30.07R
LOUISVILLE/LOU CLEAR     61  58  90 CALM      30.08R
FORT KNOX      CLEAR     56  55  95 SW1       30.08R
$$

KYZ035>037-039>044-047>052-055>060-089>105-301100-
NORTHEAST KENTUCKY

CITY           SKY/WX    TMP DP  RH WIND       PRES   REMARKS
LEXINGTON      MOCLDY    58  54  86 S6        30.09S
COVINGTON      PTCLDY    59  56  89 S3        30.06R
FRANKFORT      MOCLDY    58  54  86 CALM      30.07S
$$

KYZ054-064>069-076>088-106>120-301100-
SOUTHEAST KENTUCKY

CITY           SKY/WX    TMP DP  RH WIND       PRES   REMARKS
JACKSON        CLEAR     55  52  89 CALM      30.10S FOG
LONDON         CLEAR     54  51  90 CALM      30.12R
SOMERSET       NOT AVBL
MIDDLESBORO    FOG       53  53 100 CALM      30.14R VSB 3/4
MONTICELLO     SUNNY     53  53 100 CALM      30.12S
$$




USA.gov is the U.S. government's official web portal to all federal, state and local government web resources and services.